Dewpoint
72 74 74 75 75 75 75 75 75 76 76 76 76 76 76 76 76 75 75 75 75 75 75 74 75 75 75 75 75 76 76 76 75 74 75 75 76 76 75 75 75 75 76 76 75 75 76 76 76 76 76 76 76 75 75 76 76 76 77 77 77 77 77 77 76 76 76 76 76 76 76 76 75 75 75 74 74 73 72 72 73 72 73 74 74
72 72 73 74 75 75 75 75 75 75 76 76 75 76 76 76 75 75 75 74 74 75 74 74 74 75 75 75 75 75 76 76 75 75 75 75 76 75 75 76 76 76 76 76 75 75 76 76 76 76 76 76 76 76 75 76 75 75 76 76 76 76 76 77 76 76 76 76 76 76 76 75 75 76 75 75 74 73 72 72 73 73 73 74 74
72 73 74 75 75 75 75 75 75 75 76 75 75 76 76 76 75 75 75 74 74 75 75 75 75 75 75 75 75 75 75 75 75 75 75 75 74 73 74 75 75 76 76 76 75 76 76 76 75 75 75 75 76 76 76 75 76 76 76 76 76 76 76 77 76 76 76 76 76 76 76 76 75 76 76 76 76 75 74 74 73 73 72 74 74
72 72 73 74 75 75 75 75 75 75 75 75 76 75 75 75 75 75 74 74 74 75 75 75 75 75 75 75 75 75 75 75 75 75 76 75 75 74 75 74 75 75 75 75 75 75 75 75 75 75 75 75 75 76 76 76 76 76 76 76 76 76 76 76 76 76 75 75 74 74 74 73 74 75 75 75 75 75 75 75 75 75 74 74 74
71 72 73 74 75 75 75 75 75 75 75 76 76 75 75 75 75 74 74 74 75 75 75 75 75 75 75 76 76 75 75 76 75 75 75 75 75 75 75 74 75 75 75 75 76 75 75 75 75 75 75 75 76 76 76 76 76 76 76 76 76 76 75 75 75 75 75 72 72 74 73 73 74 74 74 75 75 75 75 75 75 75 75 75 74
71 72 73 73 73 74 75 75 75 75 75 75 75 75 75 75 75 75 74 75 75 75 75 75 75 75 75 76 76 76 76 76 76 75 75 75 75 75 74 75 75 76 76 76 76 76 76 76 76 75 75 75 76 76 76 76 76 76 76 75 75 75 75 74 74 74 75 75 75 73 73 73 72 73 75 75 75 75 75 75 75 75 75 75 75
70 71 71 72 73 74 76 75 75 75 75 75 75 75 75 75 75 75 74 75 75 75 75 75 75 75 76 76 76 76 76 76 75 75 76 75 75 74 75 75 75 76 76 76 76 76 75 76 76 75 76 75 76 76 76 76 76 76 76 75 76 75 75 74 74 74 74 74 74 76 71 72 72 72 74 74 74 74 74 74 74 74 74 73 74
70 71 70 71 73 75 75 75 75 75 75 75 75 74 75 75 75 75 75 74 75 76 76 76 76 77 76 76 76 75 75 74 75 75 74 75 75 75 74 74 73 75 75 75 75 75 75 75 76 76 75 76 76 76 76 76 76 76 76 76 75 75 75 74 74 74 73 75 75 77 71 72 73 73 75 74 74 74 74 74 74 74 74 75 75
70 70 71 71 73 75 75 75 75 75 75 74 75 75 75 75 74 74 75 75 75 76 76 76 76 76 76 76 76 75 74 74 74 74 74 75 75 75 74 73 73 75 75 75 75 75 75 75 75 76 76 75 75 75 75 75 75 76 75 75 74 75 75 75 74 74 74 75 78 74 71 71 71 72 74 74 74 74 74 75 74 74 73 73 74
69 69 70 72 74 76 75 75 75 75 75 75 75 75 75 75 74 74 74 75 75 76 76 76 76 75 75 75 75 75 73 74 73 72 74 74 75 75 73 74 75 75 75 75 74 75 75 75 75 76 76 75 75 75 75 75 75 75 75 74 74 75 75 75 74 73 74 74 73 69 71 71 70 72 74 75 74 74 75 75 75 74 74 75 75
70 70 72 72 73 75 75 75 75 75 75 75 75 75 75 75 74 73 74 75 75 75 76 76 75 75 75 75 75 74 74 75 74 74 74 73 74 75 74 75 75 76 75 75 75 75 75 75 75 76 75 75 75 75 75 75 75 74 74 74 74 75 73 75 72 73 71 72 71 71 71 74 72 73 75 75 75 74 74 74 74 74 74 74 74
70 71 72 73 76 75 75 75 75 75 75 75 75 75 75 75 75 74 74 74 75 75 75 75 75 75 74 75 75 74 74 74 75 75 73 74 74 75 75 75 75 75 75 75 75 75 75 76 76 76 75 75 74 74 75 74 74 74 73 74 74 73 74 74 73 72 75 70 70 70 69 71 72 73 74 74 74 73 74 74 74 74 74 74 74
70 71 73 74 74 75 75 75 75 75 75 75 75 75 75 76 75 75 74 74 74 75 75 75 75 75 75 75 75 75 75 74 75 75 74 74 75 76 75 75 75 75 75 75 75 75 76 76 76 76 75 74 74 74 74 74 73 72 72 72 73 74 75 76 69 71 71 71 71 70 70 71 71 74 73 74 74 74 74 74 73 73 74 73 73
70 71 72 73 73 76 76 75 75 74 74 75 75 75 75 75 75 74 74 74 74 75 75 75 75 75 74 75 75 75 74 75 75 75 75 75 76 75 75 75 75 75 75 75 75 76 76 76 76 76 76 75 75 75 75 74 74 73 73 73 73 74 74 75 71 71 70 70 72 69 71 73 72 74 73 73 73 73 72 72 72 72 72 72 71
69 70 71 72 73 74 76 75 75 75 75 75 75 75 75 75 75 74 74 74 74 74 74 75 75 75 74 74 74 75 75 75 75 76 75 75 75 75 75 75 75 75 75 75 75 76 76 76 76 76 76 76 75 75 75 75 74 74 73 73 73 74 74 69 66 72 66 70 71 68 70 72 73 73 73 73 73 73 73 73 72 72 71 71 71
67 69 71 72 73 75 75 76 76 76 75 75 75 75 75 75 74 74 74 75 74 74 73 74 74 75 75 74 73 74 75 75 75 75 75 75 75 75 75 75 75 76 75 75 75 75 76 76 76 76 76 76 76 75 75 74 74 74 74 74 73 74 75 75 72 68 70 68 70 71 70 71 73 73 73 73 73 73 73 73 73 72 71 71 71
69 70 70 72 73 73 74 75 74 75 75 75 75 75 75 75 75 75 75 75 73 74 72 73 74 74 74 73 73 74 74 75 75 75 75 75 75 75 75 75 75 76 75 76 76 76 76 76 76 76 76 76 76 75 75 74 74 75 75 74 76 75 75 76 66 67 68 70 68 69 70 72 72 72 72 73 73 73 73 73 73 73 73 73 72
69 71 70 71 72 73 73 73 74 74 74 74 75 74 74 74 74 74 74 75 74 74 73 74 74 74 74 74 74 74 74 74 75 74 75 75 75 75 75 75 75 76 76 76 76 76 76 76 76 76 76 76 76 75 75 75 75 75 75 75 76 75 75 76 71 68 68 70 69 71 71 72 72 72 73 73 73 73 72 72 72 73 72 72 73
69 70 71 71 70 72 72 73 74 73 74 74 74 73 74 74 74 74 74 74 74 74 74 74 74 74 74 74 74 75 75 74 74 74 75 75 75 75 75 76 76 76 76 76 76 75 75 76 76 75 76 76 75 75 75 75 75 75 75 76 75 76 77 76 67 67 65 70 70 71 72 73 73 72 72 71 72 71 71 71 72 71 71 72 72
68 68 68 69 70 71 72 72 73 73 73 74 75 74 73 74 74 74 74 74 75 75 75 75 75 74 74 74 75 74 74 74 75 75 74 75 74 74 75 75 76 75 75 76 76 76 75 75 75 75 75 75 75 75 75 75 76 75 75 76 76 76 75 74 64 64 67 68 70 71 73 73 73 72 71 71 70 71 71 71 71 71 71 71 70
64 67 70 70 70 71 72 72 72 71 72 72 72 73 73 74 74 73 74 74 74 74 74 74 74 74 74 74 74 74 74 75 74 73 75 75 75 75 76 76 75 75 75 75 75 75 75 75 75 75 75 75 76 76 76 76 76 76 76 76 76 75 74 71 62 65 66 69 71 71 74 73 73 72 71 71 70 70 71 70 69 70 69 70 70
67 68 69 70 71 71 71 71 72 73 73 73 73 74 74 74 74 73 73 74 73 74 73 73 74 73 74 75 74 74 75 75 74 74 75 75 75 75 76 75 75 75 75 75 75 75 75 75 75 75 75 76 75 75 75 76 77 76 77 76 75 75 73 75 70 70 66 68 71 73 74 73 73 72 71 70 70 70 70 70 71 71 71 70 71
67 67 69 68 69 70 70 71 71 73 72 72 72 74 74 74 75 74 73 74 73 73 73 73 74 73 73 74 75 75 74 75 75 74 74 74 75 76 75 75 74 74 75 75 75 75 75 75 75 76 76 76 76 75 74 73 74 76 77 75 75 75 72 74 67 71 68 68 69 74 74 73 73 72 71 71 71 71 71 72 71 72 72 72 72
65 67 67 67 69 68 69 69 71 71 73 71 73 73 74 74 74 74 74 74 75 73 74 74 74 73 73 73 74 74 74 74 74 75 75 75 75 75 75 74 74 74 74 74 75 75 75 76 76 76 76 75 74 73 72 70 71 73 75 74 73 70 71 70 68 68 68 68 70 75 74 73 73 72 72 72 72 72 71 72 72 72 72 72 73
66 66 67 67 68 68 70 70 70 70 72 71 73 73 75 73 74 74 73 73 74 75 75 75 74 73 72 73 73 74 74 74 75 75 75 75 75 75 75 74 75 74 74 75 74 74 75 74 75 75 75 73 71 72 71 70 71 69 71 69 71 67 63 73 72 67 69 69 72 75 74 74 73 73 73 72 72 72 71 72 71 72 72 71 72
66 66 66 66 66 68 69 70 69 70 72 72 72 73 74 74 72 74 73 72 73 74 74 75 74 74 72 73 74 74 75 75 74 75 75 75 74 74 74 74 74 74 74 74 73 73 73 72 72 71 71 70 70 70 69 69 67 68 69 73 69 71 71 65 66 69 70 71 73 75 74 74 74 73 73 72 72 72 72 71 72 72 72 72 71
66 65 67 67 66 67 69 69 68 72 71 73 73 73 74 73 73 73 72 72 73 73 73 73 73 74 74 74 75 73 74 75 74 75 75 75 74 74 74 74 73 73 74 74 72 73 72 71 71 72 70 69 67 67 70 65 72 61 63 68 71 69 69 71 67 70 71 71 73 74 74 74 74 74 73 73 73 73 73 72 72 72 72 72 72
66 66 66 67 66 67 68 68 71 71 71 72 72 72 72 73 72 73 72 73 73 73 73 73 74 75 73 73 76 73 72 73 73 74 75 74 73 74 74 72 70 71 73 73 71 72 71 72 72 69 69 69 67 58 62 68 68 70 59 64 65 69 72 69 67 70 71 71 73 74 73 74 74 74 74 74 73 73 73 73 73 73 72 72 72
64 64 65 64 66 66 68 69 69 70 71 72 70 71 74 72 72 73 73 73 74 73 73 73 73 74 74 75 75 73 75 72 72 73 74 74 75 73 71 68 69 70 71 69 69 71 71 71 73 69 75 74 67 68 70 62 66 65 63 62 64 71 70 65 69 67 71 71 72 73 74 73 74 74 75 74 74 74 74 74 74 73 73 73 73
64 63 63 65 65 67 68 68 69 70 70 70 73 72 74 73 73 73 73 73 74 74 74 73 74 73 74 74 75 76 72 75 72 74 74 74 73 72 69 69 71 73 71 71 76 75 75 73 73 72 70 75 69 72 71 61 59 61 62 61 59 59 72 67 69 67 71 69 71 73 75 74 74 74 74 75 75 75 75 75 75 75 75 75 75
62 64 65 66 66 66 67 69 70 72 72 69 73 73 73 73 74 74 73 72 73 74 74 74 74 75 75 76 75 75 75 75 74 74 74 72 73 72 71 71 71 70 72 74 73 73 71 70 76 73 75 73 70 73 76 67 67 58 61 59 58 63 62 65 63 60 66 71 70 72 73 75 74 74 74 75 75 75 75 76 76 76 76 76 76
62 64 64 66 66 67 69 70 70 71 72 70 72 71 73 72 72 72 72 73 73 73 75 75 75 75 74 74 75 75 75 75 73 73 72 72 71 72 73 73 71 75 76 72 76 74 77 75 75 75 76 76 74 72 77 68 65 61 69 56 65 63 63 61 56 57 64 70 69 70 72 73 75 74 75 75 75 75 76 76 76 76 76 76 76
61 62 63 62 64 66 67 68 68 70 70 70 71 72 73 72 72 75 74 72 73 75 74 74 74 74 74 75 75 75 75 74 74 73 71 70 69 74 73 73 74 76 73 70 71 77 73 77 74 73 77 74 70 71 65 65 61 70 67 61 66 67 62 61 64 58 57 66 69 68 70 72 74 75 75 75 75 75 76 76 76 76 76 76 76
63 62 61 63 64 66 66 67 68 67 70 71 72 74 75 75 75 74 74 75 73 73 75 73 73 73 75 74 76 75 75 75 72 72 70 69 72 73 73 71 77 74 75 75 76 77 75 76 72 76 70 73 69 71 71 66 62 62 67 58 63 69 67 56 58 58 59 59 64 69 68 70 72 74 74 75 76 76 76 76 77 76 77 77 77
63 61 61 62 64 65 66 66 67 67 68 70 73 74 74 73 74 73 73 74 74 73 74 73 72 73 73 75 75 75 74 73 71 73 73 73 70 71 71 72 73 74 77 77 77 74 75 75 75 74 71 70 67 69 65 67 63 63 69 66 60 59 70 64 56 58 58 60 65 61 70 70 71 72 73 73 76 76 77 77 77 77 77 77 77
61 61 62 62 62 64 66 66 66 67 68 69 71 73 73 74 73 73 74 74 75 73 74 71 72 72 74 74 73 74 73 73 74 79 75 74 71 71 74 78 77 77 78 75 77 75 76 77 74 73 75 69 72 64 71 70 61 57 64 66 67 71 63 69 67 55 55 61 64 66 66 69 71 72 74 72 72 74 77 78 78 77 77 77 77
61 62 62 62 62 64 66 65 65 66 67 67 69 70 70 71 73 74 70 72 73 74 74 73 75 71 72 72 73 73 74 75 77 77 76 73 73 71 72 71 75 75 78 81 77 75 74 67 77 77 72 78 71 65 63 66 65 58 60 56 65 70 62 70 62 64 57 63 62 58 63 64 72 73 71 73 72 72 75 78 78 78 78 78 78
62 62 62 62 62 63 64 65 66 66 68 69 71 70 69 71 70 72 74 73 72 71 71 70 70 69 70 72 74 74 76 76 77 78 79 74 76 77 73 77 77 77 78 77 79 74 76 74 79 78 75 77 76 70 63 64 53 53 63 54 68 67 68 71 69 71 69 67 64 60 62 59 64 60 63 64 68 74 72 76 79 78 79 78 78
62 61 63 64 62 63 66 68 66 67 68 71 73 71 70 71 67 69 73 70 70 69 70 73 69 67 68 71 75 74 75 76 77 78 79 74 74 76 75 76 77 81 80 77 75 75 74 75 74 75 77 75 76 72 66 67 58 52 54 56 59 72 73 69 69 67 62 59 56 61 55 62 59 63 66 65 64 66 71 71 72 73 74 77 79
62 62 66 64 65 66 66 70 69 67 69 70 71 68 68 69 65 67 68 68 68 68 69 68 67 68 69 70 74 74 76 76 77 78 78 78 74 74 75 74 76 76 76 75 73 74 74 73 75 71 76 73 75 69 67 66 64 68 64 63 65 66 65 64 68 60 66 60 59 68 61 55 60 61 60 62 63 58 66 73 75 73 74 75 77
64 63 64 64 64 66 68 68 69 70 70 70 69 67 67 68 68 64 65 66 67 66 66 65 66 68 70 70 73 71 75 75 76 76 78 77 78 77 78 79 76 77 78 76 73 74 77 77 78 79 72 75 72 68 65 67 70 70 75 62 65 63 68 72 62 59 58 58 63 61 61 58 59 59 62 58 60 62 64 70 71 71 73 80 79
65 64 64 66 66 65 66 67 69 70 70 68 70 68 70 68 66 64 64 64 66 67 66 66 66 66 72 73 73 71 74 75 76 78 78 77 76 78 78 79 78 78 78 77 76 74 74 76 73 78 75 72 73 65 61 67 69 67 64 60 67 67 64 57 56 54 57 63 65 55 67 61 54 58 59 63 66 63 62 67 75 72 76 79 77
64 63 64 66 66 67 69 70 69 69 69 69 72 71 72 71 67 65 65 64 64 66 63 67 66 65 67 70 73 73 75 74 76 77 77 76 78 78 77 79 77 78 77 78 77 77 76 73 76 78 74 73 72 66 73 68 68 64 72 72 67 60 67 67 60 53 55 55 55 60 60 54 53 62 67 68 71 72 61 70 70 75 79 79 81
64 63 64 66 66 70 70 71 70 69 71 72 72 69 70 72 74 73 72 66 67 69 70 69 68 66 65 65 73 74 73 71 72 73 74 76 77 76 75 80 79 79 81 80 77 74 78 76 71 72 75 72 69 68 70 70 72 69 73 67 66 54 60 67 67 62 57 55 55 55 57 56 57 59 63 61 64 68 70 70 71 76 80 80 80
63 64 64 65 65 67 69 71 71 70 71 72 73 73 74 73 74 74 72 72 71 71 71 67 67 68 65 68 69 72 73 71 72 71 73 76 77 77 77 76 78 77 76 77 76 71 71 72 76 80 75 75 71 71 72 67 66 72 75 75 70 65 64 61 55 71 61 56 66 54 60 55 59 64 60 63 66 72 68 65 66 68 74 80 79
63 63 64 64 66 68 69 72 71 71 69 71 73 74 74 75 75 73 73 71 71 68 68 67 64 63 63 66 70 68 69 72 71 73 75 76 76 77 77 77 76 76 80 77 75 76 76 71 73 74 73 76 79 74 70 71 68 72 72 75 75 72 70 68 63 68 69 67 59 55 65 55 58 70 71 63 67 69 71 66 66 74 75 77 77
63 63 63 64 66 68 69 70 72 72 70 72 73 75 74 74 72 70 70 70 71 70 71 66 66 63 64 67 71 69 71 71 71 73 75 75 76 79 77 78 77 76 76 76 76 69 69 68 74 74 76 77 78 78 75 70 72 70 61 63 61 63 67 68 71 70 65 72 68 62 59 63 58 58 61 62 63 71 72 70 63 67 72 76 78
62 62 62 63 69 71 71 72 72 73 71 71 73 75 74 74 73 71 70 70 66 70 71 70 70 72 69 66 68 68 70 73 72 75 75 74 77 78 78 77 77 74 75 75 74 71 73 76 77 77 79 81 78 76 74 70 74 74 70 69 65 62 68 66 65 67 70 66 67 64 59 60 66 68 65 64 70 70 66 70 66 66 71 72 77
63 62 63 63 68 69 72 72 72 73 73 72 74 73 75 74 73 69 72 71 69 68 71 71 71 71 71 69 70 67 72 74 74 72 76 75 75 77 77 77 77 76 77 74 73 71 72 75 78 80 80 78 75 78 81 75 69 73 73 74 70 70 63 63 66 69 72 67 65 64 69 70 65 66 71 63 68 70 71 70 73 68 74 72 75
62 64 64 63 67 70 71 72 72 72 73 73 74 74 73 75 73 73 71 72 70 71 71 73 74 73 74 74 75 76 68 71 73 75 76 75 76 76 76 73 75 71 73 73 73 74 75 77 77 74 77 77 79 76 75 77 75 73 74 74 79 76 73 69 65 70 75 72 68 63 64 72 72 74 70 69 73 70 68 70 71 72 72 73 75
64 63 65 65 66 69 71 72 73 73 73 73 74 73 73 72 73 73 72 70 70 71 71 72 74 73 73 71 73 75 73 70 68 73 73 72 73 76 72 71 72 74 77 74 76 71 70 72 71 75 77 77 77 78 75 76 73 74 67 72 74 66 69 70 72 69 67 69 68 66 63 61 60 61 71 65 73 66 73 76 69 70 78 75 76